Simultaneous Nadir Overpasses (SNOs) Predictions

Prediction of SNOs between AQUA and NPP Satellite Orbit:

Table of predicted SNOs for the next 14.0 days since TLE Epoch: 3/6/2020
Index Date (AQUA) Time (AQUA) Lat,Lon (AQUA) SZA (AQUA ) Date (NPP) Time (NPP) Lat,Lon (NPP) SZA (NPP ) Distance(km) Time Diff (sec)
1 03/08/2020 06:21:57 75.89, -36.68 102.44 03/08/2020 06:21:15 75.88, -36.76 102.50 2.33 42
2 03/08/2020 07:11:00 -77.07, 134.94 78.97 03/08/2020 07:11:34 -77.08, 135.01 79.01 1.60 34
3 03/10/2020 22:38:10 76.55, 81.33 100.61 03/10/2020 22:37:55 76.56, 81.40 100.60 1.91 15
4 03/10/2020 23:27:22 -77.29,-108.34 80.29 03/10/2020 23:28:24 -77.29,-108.32 80.35 0.55 62
5 03/13/2020 14:05:31 -75.64, 26.69 79.39 03/13/2020 14:04:27 -75.63, 26.65 79.33 1.26 64
6 03/13/2020 14:54:32 76.81,-161.86 99.23 03/13/2020 14:54:45 76.82,-161.83 99.21 1.05 13
7 03/16/2020 06:21:50 -76.04, 143.81 80.93 03/16/2020 06:21:14 -76.04, 143.77 80.89 1.14 36
8 03/16/2020 07:10:53 77.11, -44.87 97.80 03/16/2020 07:11:34 77.12, -44.84 97.75 0.99 41
9 03/18/2020 22:38:08 -76.49, -98.87 82.53 03/18/2020 22:38:00 -76.49, -98.88 82.52 0.22 8




NCC Satellite Simultaneous Nadir Overpasses (SNOs) Prediction Service
